Nantucket, MA

12:56 AM EDT on August 20, 2017 (GMT -0400)
Nantucket Memorial

Weather History for KACK - April, 2014

Change the Weather History Date:

Thursday, April 10, 2014

  Actual Average Record
Temperature  
Mean Temperature 37 °F -  
Max Temperature 48 °F 49 °F 60 °F (1968)
Min Temperature 28 °F 36 °F 27 °F (1954)
Degree Days  
Heating Degree Days 28    
Moisture  
Dew Point 31 °F    
Average Humidity 64    
Maximum Humidity 80    
Minimum Humidity 50    
Precipitation  
Precipitation 0.00 in - - ()
Sea Level Pressure  
Sea Level Pressure 30.15 in    
Wind  
Wind Speed 10 mph (SSW)    
Max Wind Speed 18 mph    
Max Gust Speed 24 mph    
Visibility 10 miles    
Events      
Averages and records for this station are not official NWS values.
T = Trace of Precipitation, MM = Missing Value Source: NWS Daily Summary

Daily Weather History Graph

Daily Weather History Graph

Search for Another Location

Airport or City:

Trip Planner

Search our weather history database for the weather conditions in past years. The results will help you decide how hot, cold, wet, or windy it might be!

Date:

Astronomy

Apr. 10, 2014 Rise Set
Actual Time 6:08 AM EDT 7:14 PM EDT
Civil Twilight 5:40 AM EDT 7:43 PM EDT
Nautical Twilight 5:06 AM EDT 8:17 PM EDT
Astronomical Twilight 4:31 AM EDT 8:52 PM EDT
Moon 2:53 PM EDT (4/10) 3:32 AM EDT (4/10)
Length of Visible Light 14h 02m
Length of Day
13h 06m
Waxing Gibbous, 79% of the Moon is Illuminated
Apr 10
Waxing Gibbous
Apr 15
Full
Apr 22
Last Quarter
Apr 29
New
May 6
First Quarter

Hourly Weather History & Observations

Time (EDT) Temp. Windchill Dew Point Humidity Pressure Visibility Wind Dir Wind Speed Gust Speed Precip Events Conditions
12:53 AM 39.0 °F 33.4 °F 28.9 °F 67% 29.98 in 10.0 mi North 8.1 mph - N/A   Clear
1:53 AM 39.9 °F 35.1 °F 25.0 °F 55% 30.01 in 10.0 mi North 6.9 mph - N/A   Clear
2:53 AM 39.0 °F 32.3 °F 21.9 °F 50% 30.03 in 10.0 mi NNW 10.4 mph - N/A   Clear
3:53 AM 37.9 °F 31.5 °F 24.1 °F 57% 30.05 in 10.0 mi NNW 9.2 mph - N/A   Clear
4:53 AM 37.0 °F 33.3 °F 21.0 °F 52% 30.09 in 10.0 mi North 4.6 mph - N/A   Clear
5:53 AM 28.0 °F - 18.0 °F 66% 30.12 in 10.0 mi Calm Calm - N/A   Clear
6:53 AM 32.0 °F - 23.0 °F 69% 30.16 in 7.0 mi Calm Calm - N/A   Clear
7:53 AM 42.1 °F 39.2 °F 28.0 °F 58% 30.19 in 10.0 mi SSW 4.6 mph - N/A   Clear
8:53 AM 44.1 °F 39.5 °F 28.9 °F 55% 30.21 in 10.0 mi SSW 8.1 mph - N/A   Clear
10:53 AM 45.0 °F 38.9 °F 30.9 °F 58% 30.23 in 10.0 mi South 12.7 mph - N/A   Clear
11:53 AM 46.9 °F - 32.0 °F 56% 30.22 in 10.0 mi South 16.1 mph - N/A   Clear
12:53 PM 46.9 °F - 30.9 °F 54% 30.23 in 10.0 mi SSW 18.4 mph - N/A   Clear
1:53 PM 46.9 °F - 33.1 °F 59% 30.24 in 10.0 mi SSW 16.1 mph - N/A   Clear
2:53 PM 46.9 °F - 36.0 °F 66% 30.22 in 10.0 mi SSW 13.8 mph - N/A   Clear
3:53 PM 46.9 °F - 34.0 °F 61% 30.20 in 10.0 mi South 12.7 mph - N/A   Clear
4:53 PM 46.0 °F 39.6 °F 36.0 °F 68% 30.18 in 10.0 mi South 15.0 mph - N/A   Clear
5:53 PM 45.0 °F 37.9 °F 36.0 °F 71% 30.16 in 10.0 mi South 16.1 mph - N/A   Clear
6:53 PM 44.1 °F 37.1 °F 35.1 °F 71% 30.15 in 10.0 mi SSW 15.0 mph - N/A   Clear
7:53 PM 44.1 °F 37.1 °F 36.0 °F 73% 30.16 in 10.0 mi South 15.0 mph - N/A   Clear
8:53 PM 44.1 °F 37.7 °F 37.0 °F 76% 30.16 in 10.0 mi South 12.7 mph - N/A   Clear
9:53 PM 44.1 °F 36.8 °F 37.9 °F 79% 30.14 in 10.0 mi South 16.1 mph - N/A   Clear
10:53 PM 45.0 °F 37.6 °F 39.0 °F 80% 30.14 in 10.0 mi South 17.3 mph 24.2 mph N/A   Clear
11:53 PM 45.0 °F 37.6 °F 39.0 °F 80% 30.12 in 10.0 mi South 17.3 mph - N/A   Clear